Albany, NY

9:14 AM EDT on July 21, 2017 (GMT -0400)
Albany International

Weather History for KALB - March, 2012

Change the Weather History Date:

Monday, March 26, 2012

  Actual Average Record
Temperature  
Mean Temperature 41 °F 39 °F  
Max Temperature 52 °F 49 °F 74 °F (1986)
Min Temperature 29 °F 29 °F 2 °F (1960)
Degree Days  
Heating Degree Days 24 26  
Month to date heating degree days 469 804  
Since 1 July heating degree days 4548 5748  
Cooling Degree Days 0 0  
Month to date cooling degree days 1 0  
Year to date cooling degree days 1 0  
Moisture  
Dew Point 26 °F    
Average Humidity 52    
Maximum Humidity 80    
Minimum Humidity 23    
Precipitation  
Precipitation T in 0.11 in 1.49 in (2002)
Month to date precipitation 1.46 2.68  
Year to date precipitation 4.72 7.47  
Snow  
Snow 0.00 in 0.30 in 6.10 in (1899)
Month to date snowfall 5.1 10.0  
Since 1 July snowfall 23.3 56.9  
Snow Depth 0.00 in    
Sea Level Pressure  
Sea Level Pressure 29.86 in    
Wind  
Wind Speed 20 mph (NW)    
Max Wind Speed 33 mph    
Max Gust Speed 45 mph    
Visibility 10 miles    
Events Rain    
T = Trace of Precipitation, MM = Missing Value Source: NWS Daily Summary

Daily Weather History Graph

Daily Weather History Graph

Search for Another Location

Airport or City:

Trip Planner

Search our weather history database for the weather conditions in past years. The results will help you decide how hot, cold, wet, or windy it might be!

Date:

Astronomy

Mar. 26, 2012 Rise Set
Actual Time 6:47 AM EDT 7:14 PM EDT
Civil Twilight 6:18 AM EDT 7:43 PM EDT
Nautical Twilight 5:45 AM EDT 8:16 PM EDT
Astronomical Twilight 5:11 AM EDT 8:51 PM EDT
Moon 8:28 AM EDT (3/26) 11:29 PM EDT (3/26)
Length of Visible Light 13h 24m
Length of Day
12h 27m
Waxing Crescent, 14% of the Moon is Illuminated
Mar 26
Waxing Crescent
Mar 30
First Quarter
Apr 6
Full
Apr 13
Last Quarter
Apr 21
New

Hourly Weather History & Observations

Time (EDT) Temp. Windchill Dew Point Humidity Pressure Visibility Wind Dir Wind Speed Gust Speed Precip Events Conditions
12:21 AM 51.8 °F - 46.4 °F 82% 29.74 in 10.0 mi NW 6.9 mph - N/A   Overcast
12:51 AM 51.1 °F - 45.0 °F 80% 29.74 in 10.0 mi WNW 10.4 mph - N/A   Mostly Cloudy
1:03 AM 51.8 °F - 44.6 °F 76% 29.73 in 10.0 mi WNW 8.1 mph - N/A   Overcast
1:51 AM 51.1 °F - 45.0 °F 80% 29.72 in 10.0 mi West 12.7 mph - N/A   Mostly Cloudy
2:09 AM 50.0 °F - 44.6 °F 82% 29.71 in 10.0 mi WNW 8.1 mph - N/A   Scattered Clouds
2:51 AM 50.0 °F - 44.1 °F 80% 29.70 in 10.0 mi NW 11.5 mph - N/A   Partly Cloudy
3:51 AM 51.1 °F - 44.1 °F 77% 29.68 in 10.0 mi NW 6.9 mph - N/A   Overcast
4:05 AM 51.8 °F - 44.6 °F 76% 29.68 in 10.0 mi WNW 16.1 mph 21.9 mph N/A   Scattered Clouds
4:25 AM 51.8 °F - 42.8 °F 71% 29.69 in 10.0 mi WNW 17.3 mph 28.8 mph N/A   Mostly Cloudy
4:51 AM 51.1 °F - 42.1 °F 71% 29.70 in 10.0 mi WNW 20.7 mph 25.3 mph N/A   Overcast
5:24 AM 50.0 °F - 42.8 °F 76% 29.71 in 10.0 mi West 11.5 mph - N/A   Overcast
5:51 AM 50.0 °F - 42.1 °F 74% 29.72 in 10.0 mi West 15.0 mph 23.0 mph N/A   Overcast
6:37 AM 48.2 °F - 41.0 °F 76% 29.74 in 10.0 mi WNW 16.1 mph 24.2 mph 0.00 in Rain Light Rain
6:51 AM 46.9 °F - 37.9 °F 71% 29.77 in 10.0 mi NW 21.9 mph 28.8 mph 0.00 in Rain Light Rain
7:32 AM 42.8 °F 34.3 °F 32.0 °F 66% 29.80 in 10.0 mi NW 19.6 mph 27.6 mph 0.00 in Rain Light Rain
7:51 AM 42.1 °F 33.1 °F 27.0 °F 55% 29.83 in 10.0 mi NW 20.7 mph 29.9 mph 0.00 in   Mostly Cloudy
8:51 AM 41.0 °F 31.1 °F 25.0 °F 53% 29.87 in 10.0 mi NW 23.0 mph 28.8 mph N/A   Scattered Clouds
9:51 AM 39.9 °F 29.5 °F 18.0 °F 41% 29.90 in 10.0 mi NW 24.2 mph 38.0 mph N/A   Scattered Clouds
10:51 AM 39.9 °F 29.7 °F 14.0 °F 35% 29.93 in 10.0 mi NW 23.0 mph 38.0 mph N/A   Partly Cloudy
11:51 AM 41.0 °F 31.1 °F 16.0 °F 36% 29.94 in 10.0 mi NW 23.0 mph 32.2 mph N/A   Scattered Clouds
12:51 PM 41.0 °F 30.9 °F 14.0 °F 33% 29.94 in 10.0 mi NW 24.2 mph 33.4 mph N/A   Scattered Clouds
1:51 PM 43.0 °F 33.5 °F 12.9 °F 30% 29.94 in 10.0 mi NNW 24.2 mph 34.5 mph N/A   Scattered Clouds
2:51 PM 42.1 °F 31.9 °F 12.0 °F 29% 29.93 in 10.0 mi NNW 26.5 mph 35.7 mph N/A   Scattered Clouds
3:51 PM 41.0 °F 30.7 °F 9.0 °F 27% 29.94 in 10.0 mi NNW 25.3 mph 38.0 mph N/A   Scattered Clouds
4:51 PM 37.9 °F 26.3 °F 7.0 °F 28% 29.96 in 10.0 mi NW 26.5 mph 36.8 mph N/A   Scattered Clouds
5:51 PM 39.0 °F 28.5 °F 5.0 °F 24% 29.97 in 10.0 mi NW 23.0 mph 34.5 mph N/A   Partly Cloudy
6:51 PM 36.0 °F 25.0 °F 3.9 °F 26% 30.01 in 10.0 mi NNW 20.7 mph 32.2 mph N/A   Partly Cloudy
7:51 PM 34.0 °F 23.8 °F 6.1 °F 31% 30.05 in 10.0 mi NNW 16.1 mph 24.2 mph N/A   Clear
8:51 PM 33.1 °F 21.5 °F 3.0 °F 28% 30.09 in 10.0 mi NNW 19.6 mph 31.1 mph N/A   Clear
9:51 PM 32.0 °F 20.5 °F 1.9 °F 28% 30.12 in 10.0 mi NNW 18.4 mph 25.3 mph N/A   Clear
10:51 PM 30.9 °F 21.2 °F 3.9 °F 32% 30.14 in 10.0 mi NNW 12.7 mph 21.9 mph N/A   Clear
11:51 PM 30.0 °F 17.2 °F 1.0 °F 29% 30.16 in 10.0 mi NNW 20.7 mph 27.6 mph N/A   Clear